FW4378 Weather Reports


time (UTC)temp
F
wind
direction
speed
knots
gust
knots
rain 1hr
in
rain 24hr
in
rain mn
in
humidity
%
barometer
mb
20260906155520 91 87 0.0 0.0 0.00 0.00 0.00 49 1015.4
20260906155017 91 82 0.0 0.0 0.00 0.00 0.00 50 1015.3
20260906154512 91 59 0.9 1.7 0.00 0.00 0.00 50 1015.5
20260906154010 90 74 0.0 0.0 0.00 0.00 0.00 50 1015.1
20260906153509 90 38 0.9 0.9 0.00 0.00 0.00 51 1015.4
20260906153005 90 65 0.0 0.0 0.00 0.00 0.00 52 1015.4
20260906152505 89 161 0.0 0.0 0.00 0.00 0.00 54 1015.2
20260906152004 89 59 0.0 0.0 0.00 0.00 0.00 54 1015.5
20260906151500 87 59 0.0 0.0 0.00 0.00 0.00 55 1015.4
20260906150955 88 67 1.7 2.6 0.00 0.00 0.00 54 1015.3
20260906150450 88 47 0.9 1.7 0.00 0.00 0.00 55 1015.3
20260906145949 87 50 0.9 1.7 0.00 0.00 0.00 55 1015.4
20260906145444 87 61 0.0 0.0 0.00 0.00 0.00 56 1015.3
20260906144943 87 39 0.9 2.6 0.00 0.00 0.00 58 1015.2
20260906144438 87 65 0.9 1.7 0.00 0.00 0.00 57 1015.4
20260906143934 86 60 0.9 1.7 0.00 0.00 0.00 58 1015.0
20260906143430 86 90 0.0 0.0 0.00 0.00 0.00 59 1015.2
20260906142925 86 44 0.0 0.0 0.00 0.00 0.00 58 1015.3
20260906142425 86 53 1.7 2.6 0.00 0.00 0.00 59 1015.2
20260906141920 86 61 0.0 0.0 0.00 0.00 0.00 58 1015.2
20260906141420 86 77 0.0 0.0 0.00 0.00 0.00 59 1015.3
20260906140914 85 77 0.0 0.0 0.00 0.00 0.00 61 1015.3
20260906140409 84 71 0.0 0.0 0.00 0.00 0.00 61 1015.3
20260906135907 83 74 0.0 0.0 0.00 0.00 0.00 62 1015.4
20260906135406 82 81 0.0 0.0 0.00 0.00 0.00 64 1015.4
20260906134902 82 72 0.0 0.0 0.00 0.00 0.00 64 1015.2
20260906134357 82 73 0.0 0.0 0.00 0.00 0.00 65 1015.2
20260906133852 81 72 0.0 0.0 0.00 0.00 0.00 66 1015.0
20260906133348 80 68 0.0 0.0 0.00 0.00 0.00 68 1015.2
20260906132844 80 71 0.0 0.0 0.00 0.00 0.00 69 1015.2
20260906132344 79 71 0.0 0.0 0.00 0.00 0.00 70 1015.1
20260906131840 79 73 0.0 0.0 0.00 0.00 0.00 70 1015.0
20260906131335 78 69 0.0 0.0 0.00 0.00 0.00 70 1015.0
20260906130831 78 74 0.0 0.0 0.00 0.00 0.00 72 1015.0
20260906130330 78 81 0.0 0.0 0.00 0.00 0.00 72 1015.1
20260906125829 77 77 0.0 0.0 0.00 0.00 0.00 72 1014.6
20260906125326 77 72 0.0 0.0 0.00 0.00 0.00 72 1014.6
20260906124821 77 73 0.0 0.0 0.00 0.00 0.00 72 1014.9
20260906124317 77 61 0.0 0.0 0.00 0.00 0.00 72 1015.1
20260906123816 77 71 0.0 0.0 0.00 0.00 0.00 72 1014.7
20260906123311 77 78 0.0 0.0 0.00 0.00 0.00 72 1014.7
20260906122811 77 73 0.0 0.9 0.00 0.00 0.00 72 1014.5
20260906122306 77 66 0.0 0.0 0.00 0.00 0.00 72 1014.5
20260906121803 76 67 0.0 0.0 0.00 0.00 0.00 73 1014.4
20260906121259 75 63 0.0 0.9 0.00 0.00 0.00 75 1014.4
20260906120754 75 64 0.9 0.9 0.00 0.00 0.00 78 1014.0
20260906120251 75 71 0.0 0.0 0.00 0.00 0.00 78 1013.9
20260906115747 75 75 0.0 0.0 0.00 0.00 0.00 77 1014.0
20260906115241 75 75 0.0 0.0 0.00 0.00 0.00 77 1014.0
20260906114740 75 74 0.0 0.0 0.00 0.00 0.00 78 1014.0
20260906114236 74 74 0.0 0.0 0.00 0.00 0.00 78 1013.9
20260906113731 74 75 0.0 0.0 0.00 0.00 0.00 77 1013.9
20260906113231 74 75 0.0 0.0 0.00 0.00 0.00 78 1013.9
20260906112730 74 73 0.0 0.0 0.00 0.00 0.00 78 1013.9
20260906112227 74 72 0.0 0.0 0.00 0.00 0.00 78 1013.9
20260906111726 74 74 0.0 0.0 0.00 0.00 0.00 78 1013.8
20260906111221 74 74 0.0 0.0 0.00 0.00 0.00 78 1013.7
20260906110716 74 75 0.0 0.0 0.00 0.00 0.00 78 1013.8
20260906110212 74 73 0.0 0.0 0.00 0.00 0.00 79 1013.7
20260906105711 74 73 0.0 0.0 0.00 0.00 0.00 79 1013.8
20260906105208 74 73 0.0 0.0 0.00 0.00 0.00 79 1013.8
20260906104707 74 73 0.0 0.0 0.00 0.00 0.00 79 1013.7
20260906104206 74 73 0.0 0.0 0.00 0.00 0.00 79 1013.8
20260906103703 75 73 0.0 0.0 0.00 0.00 0.00 78 1013.6
20260906103159 75 72 0.0 0.0 0.00 0.00 0.00 78 1013.6
20260906102654 75 73 0.0 0.0 0.00 0.00 0.00 78 1013.6
20260906102154 75 75 0.0 0.0 0.00 0.00 0.00 77 1013.7
20260906101653 75 76 0.0 0.0 0.00 0.00 0.00 77 1013.6
20260906101148 75 74 0.0 0.0 0.00 0.00 0.00 77 1013.8
20260906100645 75 74 0.0 0.0 0.00 0.00 0.00 77 1013.6
20260906100144 75 78 0.0 0.0 0.00 0.00 0.00 77 1013.5
20260906095639 75 76 0.0 0.0 0.00 0.00 0.00 77 1013.5
20260906095135 75 73 0.0 0.0 0.00 0.00 0.00 76 1013.5
20260906094634 75 72 0.0 0.0 0.00 0.00 0.00 76 1013.4
20260906094130 75 74 0.0 0.0 0.00 0.00 0.00 77 1013.4
20260906093626 75 71 0.0 0.0 0.00 0.00 0.00 76 1013.6
20260906093125 76 70 0.0 0.0 0.00 0.00 0.00 76 1013.5
20260906092620 75 72 0.0 0.0 0.00 0.00 0.00 76 1013.4
20260906092115 76 79 0.0 0.0 0.00 0.00 0.00 76 1013.6
20260906091612 76 78 0.0 0.0 0.00 0.00 0.00 75 1013.3
20260906091108 76 78 0.0 0.0 0.00 0.00 0.00 75 1013.3
20260906090608 76 78 0.0 0.0 0.00 0.00 0.00 74 1013.4
20260906090108 76 78 0.0 0.0 0.00 0.00 0.00 74 1013.1
20260906085607 77 72 0.0 0.0 0.00 0.00 0.00 74 1013.3
20260906085102 77 72 0.0 0.0 0.00 0.00 0.00 73 1013.3
20260906084557 77 80 0.0 0.0 0.00 0.00 0.00 73 1013.3
20260906084055 77 82 0.0 0.0 0.00 0.00 0.00 73 1013.1
20260906083551 77 77 0.0 0.0 0.00 0.00 0.00 72 1013.2
20260906083050 77 76 0.0 0.0 0.00 0.00 0.00 72 1013.3
20260906082546 77 74 0.0 0.0 0.00 0.00 0.00 72 1013.1
20260906082042 77 77 0.0 0.0 0.00 0.00 0.00 72 1013.0
20260906081538 77 71 0.0 0.0 0.00 0.00 0.00 71 1013.2
20260906081033 77 71 0.0 0.0 0.00 0.00 0.00 71 1013.0
20260906080529 77 71 0.0 0.0 0.00 0.00 0.00 71 1013.2
20260906080026 78 70 0.0 0.0 0.00 0.00 0.00 71 1013.2
20260906075525 78 73 0.0 0.0 0.00 0.00 0.00 70 1013.2
20260906075020 78 79 0.0 0.0 0.00 0.00 0.00 69 1013.3
20260906074515 78 79 0.0 0.0 0.00 0.00 0.00 69 1013.2
20260906074013 78 83 0.0 0.0 0.00 0.00 0.00 69 1013.3
20260906073508 78 73 0.0 0.0 0.00 0.00 0.00 69 1013.3
20260906073004 78 79 0.0 0.0 0.00 0.00 0.00 68 1013.4
20260906072459 78 79 0.0 0.0 0.00 0.00 0.00 67 1013.5
20260906071955 79 74 0.0 0.0 0.00 0.00 0.00 68 1013.5
20260906071451 79 75 0.0 0.0 0.00 0.00 0.00 67 1013.4
20260906070946 79 76 0.0 0.0 0.00 0.00 0.00 67 1013.7
20260906070442 79 76 0.0 0.0 0.00 0.00 0.00 66 1013.4
20260906065938 80 74 0.0 0.0 0.00 0.00 0.00 66 1013.5
20260906065437 80 70 0.0 0.0 0.00 0.00 0.00 65 1013.3
20260906064934 80 65 0.0 0.0 0.00 0.00 0.00 64 1013.6
20260906064430 80 70 0.0 0.0 0.00 0.00 0.00 64 1013.4
20260906063930 80 76 0.0 0.0 0.00 0.00 0.00 63 1013.6
20260906063425 81 76 0.0 0.0 0.00 0.00 0.00 63 1013.6
20260906062920 81 72 0.0 0.0 0.00 0.00 0.00 62 1013.5
20260906062421 81 65 0.0 0.0 0.00 0.00 0.00 63 1013.6
20260906061915 80 70 0.0 0.0 0.00 0.00 0.00 63 1013.6
20260906061412 80 76 0.0 0.0 0.00 0.00 0.00 63 1013.6
20260906060906 80 75 0.0 0.0 0.00 0.00 0.00 63 1013.5
20260906060403 80 82 0.0 0.0 0.00 0.00 0.00 63 1013.4
20260906055859 80 68 0.0 0.0 0.00 0.00 0.00 63 1013.7
20260906055355 81 74 0.0 0.0 0.00 0.00 0.00 62 1013.7
20260906054849 81 70 0.0 0.0 0.00 0.00 0.00 62 1013.7
20260906054344 80 71 0.0 0.0 0.00 0.00 0.00 62 1013.4
20260906053841 80 80 0.0 0.0 0.00 0.00 0.00 62 1013.5
20260906053336 81 77 0.0 0.0 0.00 0.00 0.00 62 1013.6
20260906052832 82 63 0.0 0.9 0.00 0.00 0.00 61 1013.5
20260906052328 82 74 0.0 0.0 0.00 0.00 0.00 60 1013.6
20260906051825 83 74 0.0 0.0 0.00 0.00 0.00 59 1013.4
20260906051324 83 72 0.0 0.0 0.00 0.00 0.00 57 1013.6
20260906050820 83 82 0.0 0.0 0.00 0.00 0.00 57 1013.4
20260906050315 83 85 0.0 0.0 0.00 0.00 0.00 56 1013.4
20260906045814 83 69 0.0 0.0 0.00 0.00 0.00 56 1013.5
20260906045308 84 62 0.9 0.9 0.00 0.00 0.00 56 1013.2
20260906044805 84 63 0.9 0.9 0.00 0.00 0.00 55 1013.1
20260906044259 84 58 1.7 1.7 0.00 0.00 0.00 55 1013.2
20260906043755 84 59 1.7 3.5 0.00 0.00 0.00 54 1013.5
20260906043251 84 81 0.9 1.7 0.00 0.00 0.00 54 1013.3
20260906042750 84 68 0.9 0.9 0.00 0.00 0.00 54 1013.4
20260906042250 84 68 0.0 0.9 0.00 0.00 0.00 54 1013.4
20260906041745 84 65 0.0 0.0 0.00 0.00 0.00 54 1013.3
20260906041240 84 72 0.0 0.0 0.00 0.00 0.00 53 1013.6
20260906040736 84 71 0.0 0.0 0.00 0.00 0.00 53 1013.3
20260906040231 84 76 0.9 0.9 0.00 0.00 0.00 53 1013.5
20260906035726 84 38 0.0 0.0 0.00 0.00 0.00 53 1013.5
20260906035222 84 73 0.0 0.0 0.00 0.00 0.00 54 1013.4
20260906034721 84 61 0.0 0.0 0.00 0.00 0.00 53 1013.3
20260906034217 84 72 0.0 0.0 0.00 0.00 0.00 54 1013.3
20260906033713 83 75 0.0 0.0 0.00 0.00 0.00 55 1013.4
20260906033212 84 77 0.0 0.0 0.00 0.00 0.00 54 1013.4
20260906032710 84 76 0.0 0.0 0.00 0.00 0.00 54 1013.5
20260906032209 84 75 0.0 0.0 0.00 0.00 0.00 53 1013.4
20260906031704 84 75 0.0 0.0 0.00 0.00 0.00 54 1013.5
20260906031159 83 75 0.0 0.0 0.00 0.00 0.00 54 1013.5
20260906030659 83 76 0.0 0.0 0.00 0.00 0.00 54 1013.3
20260906030154 83 76 0.0 0.0 0.00 0.00 0.00 55 1013.4
20260906025654 83 73 0.0 0.0 0.00 0.00 0.00 54 1013.4
20260906025153 83 77 0.0 0.0 0.00 0.00 0.00 55 1013.3
20260906024648 83 78 0.0 0.0 0.00 0.00 0.00 55 1013.1
20260906024147 84 78 0.0 0.0 0.00 0.00 0.00 54 1013.1
20260906023643 84 75 0.0 0.0 0.00 0.00 0.00 53 1013.1
20260906023143 84 71 0.0 0.0 0.00 0.00 0.00 53 1013.1
20260906022638 84 75 0.0 0.0 0.00 0.00 0.00 54 1013.0
20260906022134 84 68 0.0 0.0 0.00 0.00 0.00 53 1012.9
20260906021630 84 75 0.0 0.0 0.00 0.00 0.00 54 1012.7
20260906021129 85 76 0.0 0.0 0.00 0.00 0.00 52 1012.6
20260906020629 86 76 0.0 0.0 0.00 0.00 0.00 52 1012.5
20260906020124 86 74 0.0 0.0 0.00 0.00 0.00 52 1012.5
20260906015618 86 74 0.0 0.0 0.00 0.00 0.00 51 1012.4
20260906015116 86 76 0.0 0.0 0.00 0.00 0.00 51 1012.7
20260906014611 86 74 0.0 0.0 0.00 0.00 0.00 51 1012.4
20260906014108 86 73 0.0 0.0 0.00 0.00 0.00 50 1012.4
20260906013603 86 78 0.0 0.0 0.00 0.00 0.00 50 1012.3
20260906013058 86 73 0.0 0.0 0.00 0.00 0.00 50 1012.4
20260906012553 86 68 0.0 0.0 0.00 0.00 0.00 50 1012.0
20260906012053 87 71 0.0 0.0 0.00 0.00 0.00 50 1012.0
20260906011549 87 64 0.0 0.0 0.00 0.00 0.00 50 1012.2
20260906011048 87 72 0.0 0.0 0.00 0.00 0.00 50 1011.9
20260906010544 88 68 0.0 0.0 0.00 0.00 0.00 49 1011.9
20260906010040 88 64 0.9 0.9 0.00 0.00 0.00 48 1011.8
20260906005539 88 70 0.0 0.0 0.00 0.00 0.00 48 1011.9
20260906005039 89 66 0.0 0.0 0.00 0.00 0.00 47 1011.8
20260906004538 89 76 0.0 0.0 0.00 0.00 0.00 47 1011.8
20260906004033 89 83 0.0 0.0 0.00 0.00 0.00 46 1011.8
20260906003529 90 72 0.0 0.0 0.00 0.00 0.00 46 1011.9
20260906003025 90 70 0.0 0.0 0.00 0.00 0.00 45 1011.9
20260906002525 91 65 0.0 0.0 0.00 0.00 0.00 44 1012.2
20260906002019 91 63 0.0 0.0 0.00 0.00 0.00 44 1012.0
20260906001516 91 67 0.0 0.0 0.00 0.00 0.00 44 1011.8
20260906001015 91 63 0.0 0.0 0.00 0.00 0.00 43 1012.4
20260906000511 92 62 0.0 0.0 0.00 0.00 0.00 43 1012.0
20260906000006 92 77 0.0 0.0 0.00 0.00 0.00 43 1012.0
20260905235505 92 84 0.0 0.9 0.00 0.00 0.00 42 1012.0
20260905235001 93 65 0.0 0.9 0.00 0.00 0.00 41 1011.9
20260905234456 93 33 2.6 3.5 0.00 0.00 0.00 40 1012.0
20260905233956 94 44 0.9 0.9 0.00 0.00 0.00 40 1012.0
20260905233452 94 80 0.0 0.9 0.00 0.00 0.00 39 1011.7
20260905232950 94 61 0.9 0.9 0.00 0.00 0.00 38 1012.2
20260905232447 96 59 0.0 0.0 0.00 0.00 0.00 37 1011.9
20260905231942 97 16 0.0 0.9 0.00 0.00 0.00 36 1011.8
20260905231438 100 61 2.6 3.5 0.00 0.00 0.00 33 1011.8
20260905230934 102 59 0.0 0.0 0.00 0.00 0.00 29 1011.5
20260905230432 103 50 0.0 0.0 0.00 0.00 0.00 27 1011.7
20260905225931 102 88 0.0 0.0 0.00 0.00 0.00 28 1011.6
20260905225426 102 69 0.0 0.0 0.00 0.00 0.00 27 1011.5
20260905224921 102 57 0.0 0.0 0.00 0.00 0.00 27 1011.5
20260905224417 101 73 0.0 0.0 0.00 0.00 0.00 28 1011.5
20260905223916 101 69 0.0 0.0 0.00 0.00 0.00 28 1011.6
20260905223415 102 28 0.0 1.7 0.00 0.00 0.00 27 1011.6
20260905222914 102 62 0.0 0.0 0.00 0.00 0.00 27 1011.5
20260905222414 104 68 0.0 0.0 0.00 0.00 0.00 27 1011.5
20260905221910 105 39 0.0 0.0 0.00 0.00 0.00 25 1011.7
20260905221406 104 88 0.0 0.0 0.00 0.00 0.00 26 1011.4
20260905220902 104 95 0.0 0.0 0.00 0.00 0.00 26 1011.7
20260905220358 104 87 0.0 0.0 0.00 0.00 0.00 27 1011.7
20260905215857 104 71 0.0 0.0 0.00 0.00 0.00 26 1011.6
20260905215353 104 71 0.0 0.0 0.00 0.00 0.00 26 1011.6
20260905214849 103 76 0.0 0.0 0.00 0.00 0.00 28 1011.8
20260905214344 102 64 0.0 0.0 0.00 0.00 0.00 27 1011.7
20260905213839 102 59 0.0 0.9 0.00 0.00 0.00 28 1011.6
20260905213335 102 61 0.0 0.0 0.00 0.00 0.00 28 1011.8
20260905212835 102 31 0.9 1.7 0.00 0.00 0.00 27 1011.9
20260905212330 103 55 0.9 1.7 0.00 0.00 0.00 26 1011.9
20260905211830 102 72 0.0 0.0 0.00 0.00 0.00 27 1011.8
20260905211325 101 67 0.0 0.0 0.00 0.00 0.00 28 1012.0
20260905210822 102 35 2.6 2.6 0.00 0.00 0.00 28 1012.2
20260905210321 101 36 2.6 2.6 0.00 0.00 0.00 27 1012.2
20260905205820 101 60 0.9 0.9 0.00 0.00 0.00 28 1012.4
20260905205315 102 63 0.0 0.0 0.00 0.00 0.00 28 1012.3
20260905204814 102 32 0.0 0.0 0.00 0.00 0.00 28 1012.4
20260905204311 102 62 0.9 0.9 0.00 0.00 0.00 29 1012.4
20260905203809 102 31 0.9 0.9 0.00 0.00 0.00 29 1012.5
20260905203306 102 46 0.9 0.9 0.00 0.00 0.00 29 1012.5
20260905202801 101 68 0.0 0.9 0.00 0.00 0.00 30 1012.8
20260905202255 101 64 0.9 1.7 0.00 0.00 0.00 30 1013.0
20260905201751 102 12 2.6 3.5 0.00 0.00 0.00 30 1012.9
20260905201246 103 74 1.7 2.6 0.00 0.00 0.00 30 1012.9
20260905200741 104 51 1.7 1.7 0.00 0.00 0.00 29 1012.9
20260905200237 104 75 0.9 0.9 0.00 0.00 0.00 30 1013.1
20260905195735 102 57 0.0 0.9 0.00 0.00 0.00 30 1013.1
20260905195230 103 75 0.0 0.0 0.00 0.00 0.00 29 1013.3
20260905194726 104 47 0.0 0.9 0.00 0.00 0.00 28 1013.3
20260905194225 104 8 0.0 0.9 0.00 0.00 0.00 30 1013.1
20260905193725 104 107 0.0 0.9 0.00 0.00 0.00 28 1013.1
20260905193220 103 71 0.0 0.0 0.00 0.00 0.00 28 1013.3
20260905192715 103 67 0.0 0.9 0.00 0.00 0.00 28 1013.5
20260905192212 102 72 0.0 0.0 0.00 0.00 0.00 30 1013.4
20260905191711 102 82 0.0 0.0 0.00 0.00 0.00 30 1013.6
20260905191209 102 31 0.0 0.9 0.00 0.00 0.00 30 1013.6
20260905190708 102 78 0.0 0.9 0.00 0.00 0.00 30 1013.6
20260905190207 101 36 0.0 0.0 0.00 0.00 0.00 31 1013.7
20260905185706 100 86 0.0 0.0 0.00 0.00 0.00 32 1014.1
20260905185201 100 75 0.0 0.9 0.00 0.00 0.00 32 1014.0
20260905184700 100 121 0.9 0.9 0.00 0.00 0.00 33 1014.0
20260905184159 99 67 0.9 0.9 0.00 0.00 0.00 33 1014.1
20260905183654 99 129 1.7 1.7 0.00 0.00 0.00 32 1014.1
20260905183149 100 78 0.0 0.0 0.00 0.00 0.00 32 1014.4
20260905182648 99 72 0.0 0.0 0.00 0.00 0.00 33 1014.4
20260905182148 101 68 2.6 3.5 0.00 0.00 0.00 33 1014.2
20260905181644 100 74 0.0 0.0 0.00 0.00 0.00 34 1014.5
20260905181142 98 53 0.0 0.0 0.00 0.00 0.00 37 1014.5
20260905180637 99 34 0.9 1.7 0.00 0.00 0.00 37 1014.6
20260905180133 100 83 0.0 0.0 0.00 0.00 0.00 37 1014.9
20260905175632 100 71 0.0 0.0 0.00 0.00 0.00 37 1014.6
20260905175127 99 78 0.0 0.0 0.00 0.00 0.00 37 1014.9
20260905174623 99 73 0.0 0.0 0.00 0.00 0.00 38 1015.0
20260905174118 99 64 0.0 0.0 0.00 0.00 0.00 37 1014.9
20260905173615 98 68 0.0 0.0 0.00 0.00 0.00 37 1014.9
20260905173110 97 65 0.0 0.0 0.00 0.00 0.00 38 1015.1
20260905172608 96 50 0.0 0.0 0.00 0.00 0.00 39 1015.1
20260905172103 97 70 0.0 0.0 0.00 0.00 0.00 38 1015.4
20260905171600 96 57 0.0 0.0 0.00 0.00 0.00 40 1015.4
20260905171056 96 58 0.0 0.9 0.00 0.00 0.00 40 1015.2
20260905170552 95 68 0.0 0.0 0.00 0.00 0.00 42 1015.5
20260905170047 95 47 0.9 0.9 0.00 0.00 0.00 42 1015.6
20260905165542 96 12 1.7 2.6 0.00 0.00 0.00 40 1015.3
20260905165037 95 75 0.0 0.0 0.00 0.00 0.00 43 1015.4
20260905164537 95 77 0.0 0.0 0.00 0.00 0.00 43 1015.7
20260905164032 95 76 1.7 2.6 0.00 0.00 0.00 43 1015.4
20260905163528 96 52 1.7 1.7 0.00 0.00 0.00 42 1015.6
20260905163024 96 47 0.0 0.9 0.00 0.00 0.00 42 1015.8
20260905162520 96 85 0.0 0.0 0.00 0.00 0.00 43 1015.5
20260905162015 94 75 0.0 0.0 0.00 0.00 0.00 44 1015.7
20260905161514 95 61 0.0 0.0 0.00 0.00 0.00 44 1015.7
20260905161013 94 81 0.9 0.9 0.00 0.00 0.00 44 1015.6
20260905160511 94 80 0.0 0.9 0.00 0.00 0.00 45 1015.8
20260905160012 93 63 0.9 1.7 0.00 0.00 0.00 45 1016.0